[[{"header":{"parameterUnit":"m.s-1","parameterCategory":1,"la1":30.2991,"la2":30.254,"lo1":-89.0895,"lo2":-89.0444,"dy":0.0017,"dx":0.0017,"nx":28,"ny":28,"refTime":"2025-01-05T09:00:00:Z","depth":0,"parameterNumber":2,"parameterNumberName":"U-component_of_WINDS"},"data":[0,0,0,0,0,0,0,0,0,0,0,0,0,0,0,0,0,0,0,0,0,0,0,0,0,0,0,0,0,0,0,0,0,0,0,0,0,0,0,0,0,0,0,0,0,0,0,0,0,0,0,0,0,0,0,0,0,0,3.3739,3.3739,0,3.3763,3.3763,3.3763,3.3709,3.3708,3.3706,3.3704,3.3727,3.3729,3.3731,0,0,0,0,0,0,0,0,0,0,0,0,0,3.3648,3.365,3.3739,3.3739,3.374,3.3763,3.3763,3.3763,3.371,3.3708,3.3705,3.3703,3.3726,3.3729,3.3731,0,0,0,0,0,0,0,0,0,0,0,0,0,3.3681,3.365,3.3739,3.3716,3.3714,3.3763,3.3763,3.3763,3.371,3.3707,3.3705,3.3702,3.3725,3.3728,3.3732,3.3804,0,0,3.3742,3.3743,0,0,0,0,0,0,0,0,3.3679,3.3684,3.3719,3.3717,3.3715,3.373,3.3739,3.3777,3.3711,3.3711,3.3704,3.3701,3.373,3.3733,3.3743,3.3805,3.3806,3.3742,3.3744,3.3746,3.3746,0,0,0,0,0,0,0,3.3677,3.3683,3.3748,3.3719,3.3717,3.3704,3.3706,3.3746,3.3735,3.3711,3.3707,3.3711,3.3729,3.374,3.3743,3.3806,3.3742,3.3745,3.3747,3.3748,3.393,3.3933,0,0,0,0,0,0,3.3678,3.3681,3.3748,3.3749,3.3691,3.3708,3.371,3.3728,3.3734,3.3733,3.3713,3.3708,3.3735,3.3739,3.3744,3.3829,3.3746,3.3749,3.3751,3.3927,3.3931,3.3934,0,0,0,0,0,0,3.3676,3.3684,3.3747,3.3714,3.3721,3.3712,3.3733,3.373,3.3741,3.3736,3.3733,3.3727,3.3733,3.3739,3.379,3.3829,3.375,3.3753,3.3924,3.3928,3.3932,3.4,0,0,0,0,0,0,3.3673,3.3684,3.3711,3.3715,3.3723,3.3793,3.3736,3.3732,3.3747,3.3741,3.3748,3.3746,3.3732,3.3785,3.3793,3.3832,3.3756,3.392,3.3926,3.3931,3.3994,3.4006,3.4016,0,0,0,0,0,3.367,3.3728,3.3712,3.3721,3.3757,3.3795,3.3799,3.3782,3.3751,3.3778,3.3775,3.3746,3.3824,3.3791,3.3799,3.384,3.3918,3.3924,3.393,3.3989,3.4004,3.4016,0,0,0,0,0,0,3.3727,3.3728,3.3711,3.3772,3.3784,3.3786,3.3819,3.3798,3.3818,3.3812,3.3789,3.3791,3.3846,3.3848,3.3811,3.3911,3.3865,3.3874,3.3907,3.3921,3.3932,3.393,3.3758,0,0,0,0,0,3.3747,3.3778,3.3777,3.3831,3.3839,3.3828,3.3844,3.383,3.3841,3.3846,3.3846,3.3858,3.3885,3.3903,3.3928,3.3995,3.3996,3.4027,3.4038,3.4047,3.4054,3.4091,3.4105,3.3955,3.3955,3.3954,0,0,3.3788,3.3793,3.3813,3.3843,3.3851,3.3883,3.3833,3.3869,3.3893,3.3851,3.3899,3.39,3.3912,3.3972,3.3998,3.3975,3.4097,3.4055,3.4063,3.4065,3.4099,3.4114,3.4126,3.3959,3.3958,3.3958,0,0,3.3879,3.3886,3.3932,3.3942,3.3954,3.3947,3.3959,3.3965,3.3964,3.4012,3.3982,3.401,3.4057,3.4067,3.4078,3.4177,3.4151,3.4185,3.4242,3.4279,3.429,3.4301,3.4336,3.4349,3.4193,3.4193,3.4193,0,3.3928,3.3977,3.3959,3.3998,3.4012,3.3977,3.4024,3.4034,3.4054,3.4064,3.4039,3.4098,3.4104,3.4166,3.419,3.42,3.4212,3.4184,3.429,3.4301,3.431,3.4343,3.4357,3.4197,3.4197,3.4196,3.4196,0,3.4037,3.4071,3.4107,3.4128,3.4147,3.419,3.4178,3.4199,3.4185,3.4181,3.4231,3.4237,3.4262,3.4276,3.4261,3.4337,3.4322,3.4294,3.4248,3.4329,3.436,3.4372,3.4203,3.4201,3.42,3.4199,0,0,3.4162,3.4175,3.4189,3.4199,3.4211,3.4237,3.4279,3.4306,3.4324,3.434,3.4375,3.4416,3.4391,3.4404,3.439,3.4422,3.45,3.439,3.439,3.441,3.4585,3.4605,3.462,3.4484,3.4487,3.4488,3.4584,0,3.4253,3.4325,3.4312,3.4382,3.4414,3.4383,3.4419,3.4431,3.4429,3.4456,3.4454,3.4484,3.4448,3.4456,3.4486,3.4484,3.4535,3.4477,3.4516,3.4518,3.4514,3.4637,3.4658,3.4748,3.4596,3.4598,3.4599,0,3.4368,3.4389,3.4463,3.4473,3.4486,3.4519,3.4542,3.4569,3.4582,3.4578,3.4595,3.4575,3.4617,3.4572,3.463,3.4591,3.4607,3.4609,3.4612,3.4614,3.4563,3.4642,3.4776,3.4789,3.4618,3.4616,3.4615,0,3.4452,3.45,3.4551,3.456,3.4572,3.4596,3.4603,3.4613,3.4631,3.4652,3.4663,3.4688,3.4702,3.4722,3.4711,3.4678,3.4771,3.4724,3.4769,3.477,3.4789,3.4788,3.4927,3.48,3.48,3.48,3.4799,0,3.4554,3.4601,3.4589,3.462,3.4672,3.4656,3.4708,3.471,3.4721,3.4752,3.4726,3.4756,3.474,3.4769,3.476,3.481,3.4816,3.4815,3.4812,3.4817,3.4817,3.4826,3.4819,3.4803,3.4802,3.4802,3.4801,0,3.4657,3.4651,3.4704,3.4712,3.4715,3.4753,3.476,3.4789,3.4786,3.4827,3.4835,3.4831,3.4863,3.4855,3.489,3.4884,3.4947,3.4936,3.4943,3.494,3.4986,3.4981,3.5134,3.5154,3.5015,3.5017,3.5018,0,3.4722,3.4758,3.477,3.479,3.4798,3.483,3.4848,3.4834,3.4854,3.4873,3.4901,3.4932,3.4955,3.501,3.5009,3.5037,3.5026,3.5078,3.503,3.5034,3.5027,3.5025,3.5028,3.5087,3.5089,3.509,3.5091,0,3.4839,3.4835,3.4862,3.4889,3.4911,3.4931,3.4949,3.4967,3.4954,3.4978,3.5012,3.5031,3.5068,3.5099,3.5125,3.5131,3.5109,3.5107,3.5119,3.5124,3.5126,3.5125,3.4968,3.5103,3.5102,3.5101,3.51,3.51,3.4924,3.4955,3.4969,3.5001,3.5013,3.5031,3.5059,3.5061,3.5089,3.5119,3.5109,3.5148,3.5162,3.5195,3.5204,3.5235,3.5215,3.5232,3.5236,3.5241,3.5246,3.5122,3.5239,3.5239,3.5239,3.5238,3.5238,0,3.504,3.5048,3.5077,3.5104,3.5129,3.5108,3.5127,3.515,3.5185,3.52,3.5225,3.5264,3.5295,3.5298,3.5327,3.5351,3.5342,3.5359,3.5357,3.5359,3.5262,3.5249,3.5366,3.5366,3.5366,3.5366,3.5366,3.5366,3.5103,3.5154,3.5151,3.5209,3.5216,3.5255,3.5268,3.5285,3.5297,3.5343,3.5368,3.5371,3.5382,3.5412,3.5439,3.5439,3.5451,3.5472,3.5468,3.5378,3.5365,3.5353,3.5341,3.5475,3.5475,3.5562,3.5563,3.5563]},{"header":{"parameterUnit":"m.s-1","parameterCategory":1,"la1":30.2991,"la2":30.254,"lo1":-89.0895,"lo2":-89.0444,"dy":0.0017,"dx":0.0017,"nx":28,"ny":28,"refTime":"2025-01-05T09:00:00:Z","depth":0,"parameterNumber":3,"parameterNumberName":"V-component_of_WINDS"},"data":[0,0,0,0,0,0,0,0,0,0,0,0,0,0,0,0,0,0,0,0,0,0,0,0,0,0,0,0,0,0,0,0,0,0,0,0,0,0,0,0,0,0,0,0,0,0,0,0,0,0,0,0,0,0,0,0,0,0,-8.3357,-8.3359,0,-8.3586,-8.3588,-8.3591,-8.3539,-8.3535,-8.3531,-8.3527,-8.3757,-8.3767,-8.3777,0,0,0,0,0,0,0,0,0,0,0,0,0,-8.2872,-8.2881,-8.3356,-8.3359,-8.3362,-8.3585,-8.3588,-8.3591,-8.354,-8.3535,-8.353,-8.3525,-8.3754,-8.3766,-8.3778,0,0,0,0,0,0,0,0,0,0,0,0,0,-8.309,-8.2884,-8.3356,-8.3364,-8.3367,-8.3585,-8.3588,-8.3592,-8.3541,-8.3535,-8.3528,-8.3522,-8.375,-8.3765,-8.378,-8.4003,0,0,-8.3827,-8.3833,0,0,0,0,0,0,0,0,-8.3078,-8.3108,-8.336,-8.3364,-8.3367,-8.3527,-8.3502,-8.373,-8.3543,-8.3475,-8.3527,-8.3519,-8.3686,-8.3706,-8.3763,-8.4014,-8.4024,-8.3828,-8.3837,-8.3844,-8.3848,0,0,0,0,0,0,0,-8.3063,-8.3098,-8.3447,-8.3363,-8.3368,-8.3355,-8.3378,-8.3545,-8.3614,-8.348,-8.3477,-8.3505,-8.3687,-8.3748,-8.3768,-8.4027,-8.3827,-8.3841,-8.385,-8.3856,-8.4474,-8.448,0,0,0,0,0,0,-8.3045,-8.3085,-8.344,-8.3454,-8.3204,-8.3369,-8.3395,-8.3482,-8.3612,-8.3625,-8.351,-8.3502,-8.3726,-8.375,-8.3776,-8.4046,-8.3844,-8.3858,-8.3867,-8.4466,-8.4475,-8.4483,0,0,0,0,0,0,-8.3034,-8.3077,-8.343,-8.3269,-8.3313,-8.3384,-8.3482,-8.349,-8.3552,-8.3635,-8.3646,-8.3561,-8.3721,-8.3754,-8.3948,-8.4054,-8.3865,-8.3879,-8.4458,-8.4469,-8.4479,-8.4589,0,0,0,0,0,0,-8.3021,-8.3073,-8.316,-8.3271,-8.3322,-8.36,-8.3489,-8.3499,-8.3579,-8.357,-8.3685,-8.3698,-8.3719,-8.3925,-8.3963,-8.4071,-8.389,-8.4449,-8.4463,-8.4476,-8.4576,-8.4602,-8.4625,0,0,0,0,0,-8.3004,-8.3181,-8.3164,-8.3207,-8.3431,-8.3606,-8.3635,-8.3656,-8.3588,-8.3675,-8.3728,-8.3694,-8.4036,-8.3945,-8.3987,-8.4102,-8.4442,-8.4459,-8.4475,-8.4565,-8.4597,-8.4624,0,0,0,0,0,0,-8.3078,-8.3195,-8.3179,-8.3397,-8.3492,-8.3597,-8.3707,-8.3689,-8.3804,-8.3791,-8.3811,-8.3838,-8.4035,-8.4087,-8.3984,-8.4325,-8.4229,-8.4254,-8.4284,-8.4315,-8.4338,-8.4321,-8.3903,0,0,0,0,0,-8.3121,-8.3254,-8.3348,-8.3532,-8.358,-8.3636,-8.3713,-8.3721,-8.382,-8.3859,-8.3926,-8.4022,-8.4151,-8.4236,-8.4359,-8.4583,-8.4608,-8.4683,-8.4707,-8.4726,-8.4748,-8.4871,-8.4906,-8.4537,-8.4536,-8.4536,0,0,-8.3209,-8.3289,-8.3371,-8.3549,-8.3623,-8.376,-8.367,-8.3818,-8.3919,-8.3881,-8.4068,-8.4121,-8.4229,-8.4439,-8.4535,-8.4489,-8.4856,-8.4747,-8.4762,-8.4774,-8.4891,-8.4926,-8.4957,-8.4548,-8.4546,-8.4544,0,0,-8.3439,-8.3513,-8.3675,-8.3752,-8.3866,-8.3902,-8.3941,-8.4049,-8.4083,-8.4271,-8.4246,-8.4366,-8.4587,-8.4666,-8.4735,-8.4996,-8.4969,-8.5035,-8.5161,-8.5281,-8.531,-8.5336,-8.5429,-8.5462,-8.5056,-8.5057,-8.5057,0,-8.3533,-8.3739,-8.3759,-8.3911,-8.399,-8.3963,-8.4126,-8.4199,-8.4348,-8.4402,-8.4349,-8.4627,-8.4698,-8.4927,-8.499,-8.5047,-8.5092,-8.5022,-8.5304,-8.5331,-8.5355,-8.5444,-8.5479,-8.5064,-8.5063,-8.5062,-8.5062,0,-8.385,-8.3993,-8.4109,-8.4255,-8.4347,-8.4503,-8.4547,-8.4637,-8.4638,-8.4679,-8.4871,-8.4955,-8.5095,-8.515,-8.5151,-8.5379,-8.5347,-8.5299,-8.5203,-8.5397,-8.5481,-8.5515,-8.5074,-8.5072,-8.5069,-8.5068,0,0,-8.4134,-8.4289,-8.4332,-8.4398,-8.4522,-8.4633,-8.4788,-8.4926,-8.5003,-8.5106,-8.5237,-8.5425,-8.5382,-8.546,-8.547,-8.5575,-8.5777,-8.5515,-8.5518,-8.5561,-8.6033,-8.6068,-8.6108,-8.576,-8.5767,-8.5772,-8.6024,0,-8.4375,-8.465,-8.4673,-8.492,-8.5052,-8.5029,-8.5164,-8.5255,-8.5297,-8.5415,-8.5461,-8.5595,-8.5528,-8.5575,-8.5678,-8.5731,-8.5872,-8.5713,-8.5881,-8.5887,-8.5855,-8.6152,-8.619,-8.6423,-8.6057,-8.6062,-8.6067,0,-8.4694,-8.4809,-8.5069,-8.5176,-8.5232,-8.5353,-8.5482,-8.5595,-8.5697,-8.5721,-8.5809,-8.5805,-8.5963,-8.5861,-8.608,-8.5971,-8.6041,-8.6077,-8.6087,-8.6103,-8.5988,-8.6176,-8.6498,-8.6533,-8.6118,-8.6114,-8.6111,0,-8.4876,-8.5094,-8.5279,-8.5336,-8.5465,-8.555,-8.5608,-8.5704,-8.5786,-8.5898,-8.5951,-8.608,-8.615,-8.6249,-8.628,-8.6203,-8.6497,-8.6398,-8.6521,-8.652,-8.6584,-8.658,-8.6922,-8.6629,-8.6628,-8.6628,-8.6627,0,-8.5143,-8.5304,-8.5362,-8.5475,-8.5654,-8.5679,-8.5854,-8.5907,-8.5993,-8.6115,-8.6102,-8.6217,-8.625,-8.6371,-8.6395,-8.6572,-8.6604,-8.6627,-8.6632,-8.6629,-8.6626,-8.6675,-8.666,-8.6637,-8.6635,-8.6633,-8.6632,0,-8.5376,-8.5422,-8.5621,-8.5727,-8.5758,-8.5885,-8.5975,-8.6084,-8.6124,-8.628,-8.6317,-8.6381,-8.6523,-8.6563,-8.6732,-8.6748,-8.6957,-8.6946,-8.6923,-8.6923,-8.7044,-8.7032,-8.743,-8.7483,-8.7155,-8.7158,-8.7161,0,-8.5544,-8.5667,-8.5787,-8.5869,-8.593,-8.6062,-8.6146,-8.6175,-8.6262,-8.6388,-8.6482,-8.6622,-8.6735,-8.6962,-8.7023,-8.7152,-8.7145,-8.7275,-8.7164,-8.7157,-8.7147,-8.714,-8.7152,-8.7296,-8.73,-8.7302,-8.7305,0,-8.5838,-8.5854,-8.5976,-8.6107,-8.6208,-8.6312,-8.6411,-8.6479,-8.6522,-8.6621,-8.6766,-8.6854,-8.7028,-8.7167,-8.7298,-8.7356,-8.7338,-8.7339,-8.7375,-8.7373,-8.7355,-8.7366,-8.6981,-8.733,-8.7328,-8.7326,-8.7324,-8.7323,-8.6044,-8.6152,-8.6254,-8.639,-8.6468,-8.6562,-8.667,-8.6724,-8.6847,-8.6991,-8.7,-8.7158,-8.7256,-8.7431,-8.7496,-8.7619,-8.758,-8.7631,-8.7644,-8.7657,-8.7667,-8.7335,-8.7643,-8.7642,-8.7642,-8.7641,-8.7641,0,-8.6337,-8.6401,-8.6527,-8.6667,-8.6775,-8.6749,-8.6858,-8.695,-8.7089,-8.7183,-8.7296,-8.7463,-8.7597,-8.7669,-8.7803,-8.7888,-8.7883,-8.7922,-8.7916,-8.793,-8.7694,-8.765,-8.7924,-8.7924,-8.7924,-8.7924,-8.7923,-8.7923,-8.6502,-8.6684,-8.6713,-8.6934,-8.6997,-8.7152,-8.7217,-8.7303,-8.7378,-8.7566,-8.7678,-8.7725,-8.781,-8.795,-8.8073,-8.809,-8.814,-8.8184,-8.8197,-8.7975,-8.7946,-8.7919,-8.7878,-8.8194,-8.8195,-8.8422,-8.8424,-8.8426]}]]